{"data":{"norad_id":51788,"intl_designator":"2022-017W","name":"STARLINK-3641","alt_names":[],"object_type":"PAYLOAD","status":"ACTIVE","operator":null,"country":"US","launch_date":"2022-02-25","launch_site_code":"AFWTR","launch_vehicle":null,"mission":null,"orbit_class":"UNKNOWN","rcs_meters":null,"size_class":null,"mass_kg":null,"dimensions":null,"purposes":["comms"],"wikipedia_slug":null,"has_3d_model":false,"image_url":null,"decayed_at":null,"tle_current":{"epoch":"2026-09-19T07:16:13.558080Z","epoch_age_seconds":155332,"freshness":"FRESH","line1":"1 51788U 22017W   26262.30293470 -.00000248  00000+0  37856-5 0  9995","line2":"2 51788  53.1597 184.9705 0001367  90.2453 269.8707 15.34388203253359","mean_motion":15.34388203,"eccentricity":0.0001367,"inclination_deg":53.1597,"raan_deg":184.9705,"arg_perigee_deg":90.2453,"mean_anomaly_deg":269.8707,"bstar":3.7856e-6,"rev_number":25335,"period_min":93.848479621034,"perigee_km":461.80315594786,"apogee_km":463.67345125586,"semimajor_km":6840.8753036019,"source":"CELESTRAK","updated_at":"2026-09-20T09:00:39.940019Z"}}}